Simultaneous Nadir Overpasses (SNOs) Predictions

Prediction of SNOs between GOES-16 and METOP-B Satellite Orbit:

Table of predicted SNOs for the next 14.0 days since TLE Epoch: 9/11/2020
Index Date Time (GOES-16) GOES-16 Lat,Lon METOP-B Lat,Lon Distance(km) Time Diff (sec)
1 09/13/2020 02:39:00 -0.01, -75.17 -0.39, -76.87 193.89 80
2 09/14/2020 02:15:39 -0.01, -75.17 0.70, -71.87 375.59 80
3 09/15/2020 14:37:10 0.01, -75.20 0.32, -76.43 140.97 80
4 09/16/2020 14:13:50 0.01, -75.20 -0.83, -71.44 428.80 80
5 09/18/2020 02:35:30 -0.01, -75.19 -0.22, -76.03 95.74 80
6 09/19/2020 02:12:10 -0.01, -75.20 0.93, -71.04 474.42 80
7 09/20/2020 14:33:40 0.01, -75.24 0.09, -75.60 41.02 80
8 09/23/2020 02:29:20 -0.02, -75.25 0.01, -75.20 6.17 80
9 09/25/2020 14:27:30 0.03, -75.30 -0.09, -74.76 61.63 80
